Weather History for KMRC - March, 2013

Change the Weather History Date:

Monday, March 18, 2013

  Actual Average (KBNA) Record (KBNA)
Temperature  
Mean Temperature 55 °F 51 °F  
Max Temperature 64 °F 62 °F 86 °F (1908)
Min Temperature 46 °F 40 °F 17 °F (1902)
Degree Days  
Heating Degree Days 10    
Month to date heating degree days  
Since 1 July heating degree days  
Cooling Degree Days 0    
Month to date cooling degree days  
Year to date cooling degree days  
Growing Degree Days 5 (Base 50)    
Moisture  
Dew Point 59 °F    
Average Humidity 98    
Maximum Humidity 100    
Minimum Humidity 88    
Precipitation  
Precipitation 0.00 in 0.13 in 2.45 in (1943)
Month to date precipitation 2.35  
Year to date precipitation 10.04  
Snow  
Snow 0.00 in 0.00 in 0.20 in (1893)
Month to date snowfall 0.6  
Since 1 July snowfall 6.0  
Snow Depth -    
Sea Level Pressure  
Sea Level Pressure 29.78 in    
Wind  
Wind Speed 12 mph (SW)    
Max Wind Speed 20 mph    
Max Gust Speed 29 mph    
Visibility 9 miles    
Events      
T = Trace of Precipitation, MM = Missing Value Source: NWS Daily Summary

Daily Weather History Graph

Daily Weather History Graph

Search for Another Location

Airport or City:

Trip Planner

Search our weather history database for the weather conditions in past years. The results will help you decide how hot, cold, wet, or windy it might be!

Date:

Astronomy

Mar. 18, 2013 Rise Set
Actual Time 6:54 AM CDT 6:59 PM CDT
Civil Twilight 6:29 AM CDT 7:24 PM CDT
Nautical Twilight 5:59 AM CDT 7:54 PM CDT
Astronomical Twilight 5:29 AM CDT 8:24 PM CDT
Moon 11:05 AM CDT (3/18) 12:46 AM CDT (3/18)
Length of Visible Light 12h 55m
Length of Day
12h 04m
Waxing Crescent, 41% of the Moon is Illuminated
Mar 18
Waxing Crescent
Mar 19
First Quarter
Mar 27
Full
Apr 2
Last Quarter
Apr 10
New

Hourly Weather History & Observations

Time (CDT) Temp. Windchill Dew Point Humidity Pressure Visibility Wind Dir Wind Speed Gust Speed Precip Events Conditions
12:35 AM 64.4 °F - 60.8 °F 88% 29.77 in 10.0 mi South 12.7 mph - N/A   Overcast
12:55 AM 64.4 °F - 60.8 °F 88% 29.77 in 10.0 mi South 12.7 mph - N/A   Overcast
1:15 AM 64.4 °F - 60.8 °F 88% 29.76 in 10.0 mi South 16.1 mph - N/A   Overcast
1:35 AM 64.4 °F - 62.6 °F 94% 29.76 in 10.0 mi South 10.4 mph - N/A   Overcast
1:55 AM 64.4 °F - 62.6 °F 94% 29.76 in 10.0 mi South 13.8 mph 25.3 mph N/A   Overcast
2:15 AM 64.4 °F - 62.6 °F 94% 29.75 in 10.0 mi South 16.1 mph - N/A   Overcast
2:35 AM 64.4 °F - 62.6 °F 94% 29.75 in 10.0 mi South 12.7 mph - N/A   Overcast
2:55 AM 64.4 °F - 64.4 °F 100% 29.75 in 10.0 mi South 13.8 mph - N/A   Overcast
3:15 AM 64.4 °F - 64.4 °F 100% 29.74 in 10.0 mi South 13.8 mph - N/A   Overcast
3:35 AM 64.4 °F - 64.4 °F 100% 29.74 in 10.0 mi South 15.0 mph - N/A   Overcast
3:55 AM 64.4 °F - 64.4 °F 100% 29.73 in 10.0 mi South 16.1 mph - N/A   Overcast
4:15 AM 64.4 °F - 64.4 °F 100% 29.73 in 10.0 mi South 16.1 mph - N/A   Overcast
4:35 AM 64.4 °F - 62.6 °F 94% 29.74 in 10.0 mi South 16.1 mph - N/A   Mostly Cloudy
4:55 AM 64.4 °F - 64.4 °F 100% 29.74 in 10.0 mi SSW 19.6 mph - N/A   Overcast
5:15 AM 62.6 °F - 62.6 °F 100% 29.73 in 10.0 mi South 16.1 mph 26.5 mph N/A   Mostly Cloudy
5:35 AM 62.6 °F - 62.6 °F 100% 29.73 in 10.0 mi SSW 18.4 mph - N/A   Scattered Clouds
5:55 AM 64.4 °F - 64.4 °F 100% 29.73 in 10.0 mi South 13.8 mph - N/A   Mostly Cloudy
6:15 AM 64.4 °F - 64.4 °F 100% 29.73 in 10.0 mi South 15.0 mph 28.8 mph N/A   Overcast
6:35 AM 64.4 °F - 64.4 °F 100% 29.73 in 10.0 mi South 15.0 mph - N/A   Overcast
6:55 AM 62.6 °F - 62.6 °F 100% 29.72 in 10.0 mi South 12.7 mph - N/A   Overcast
7:15 AM 62.6 °F - 62.6 °F 100% 29.73 in 10.0 mi South 13.8 mph - N/A   Overcast
7:35 AM 62.6 °F - 62.6 °F 100% 29.74 in 10.0 mi South 13.8 mph 27.6 mph N/A   Overcast
7:55 AM 62.6 °F - 62.6 °F 100% 29.75 in 10.0 mi SSW 12.7 mph - N/A   Overcast
8:15 AM 62.6 °F - 62.6 °F 100% 29.75 in 7.0 mi SSW 12.7 mph - N/A   Overcast
8:35 AM 62.6 °F - 62.6 °F 100% 29.75 in 8.0 mi SSW 12.7 mph - N/A   Overcast
8:55 AM 62.6 °F - 62.6 °F 100% 29.75 in 10.0 mi South 13.8 mph - N/A   Overcast
9:15 AM 62.6 °F - 62.6 °F 100% 29.74 in 10.0 mi South 15.0 mph - N/A   Overcast
9:35 AM 62.6 °F - 62.6 °F 100% 29.75 in 7.0 mi SSW 15.0 mph - N/A   Overcast
9:55 AM 62.6 °F - 62.6 °F 100% 29.74 in 7.0 mi SSW 11.5 mph - N/A   Overcast
10:15 AM 62.6 °F - 62.6 °F 100% 29.73 in 10.0 mi South 13.8 mph - N/A   Overcast
10:35 AM 62.6 °F - 62.6 °F 100% 29.74 in 8.0 mi SSW 11.5 mph - N/A   Overcast
10:55 AM 62.6 °F - 62.6 °F 100% 29.74 in 1.5 mi SW 8.1 mph - N/A   Overcast
11:15 AM 60.8 °F - 60.8 °F 100% 29.75 in 2.5 mi SW 12.7 mph - N/A   Overcast
11:35 AM 59.0 °F - 59.0 °F 100% 29.77 in 3.0 mi South 6.9 mph - N/A   Mostly Cloudy
11:55 AM 57.2 °F - 57.2 °F 100% 29.76 in 1.2 mi SSW 5.8 mph - N/A   Overcast
12:15 PM 59.0 °F - 59.0 °F 100% 29.76 in 0.5 mi SW 4.6 mph - N/A   Overcast
12:35 PM 59.0 °F - 59.0 °F 100% 29.76 in 6.0 mi Calm Calm - N/A   Overcast
12:55 PM 60.8 °F - 60.8 °F 100% 29.77 in 8.0 mi Calm Calm - N/A   Overcast
1:15 PM 60.8 °F - 60.8 °F 100% 29.77 in 10.0 mi WNW 4.6 mph - N/A   Overcast
1:35 PM 60.8 °F - 60.8 °F 100% 29.76 in 10.0 mi NNW 4.6 mph - N/A   Overcast
1:55 PM 60.8 °F - 60.8 °F 100% 29.75 in 10.0 mi West 6.9 mph - N/A   Mostly Cloudy
2:15 PM 62.6 °F - 62.6 °F 100% 29.73 in 10.0 mi WSW 10.4 mph - N/A   Scattered Clouds
2:35 PM 62.6 °F - 62.6 °F 100% 29.71 in 10.0 mi WSW 8.1 mph - N/A   Mostly Cloudy
2:55 PM 60.8 °F - 60.8 °F 100% 29.75 in 10.0 mi West 8.1 mph - N/A   Mostly Cloudy
3:15 PM 60.8 °F - 60.8 °F 100% 29.73 in 9.0 mi SW 5.8 mph - N/A   Mostly Cloudy
3:35 PM 60.8 °F - 60.8 °F 100% 29.73 in 10.0 mi West 6.9 mph - N/A   Mostly Cloudy
3:55 PM 60.8 °F - 60.8 °F 100% 29.73 in 10.0 mi WSW 4.6 mph - N/A   Mostly Cloudy
4:15 PM 60.8 °F - 60.8 °F 100% 29.75 in 10.0 mi West 3.5 mph - N/A   Mostly Cloudy
4:35 PM 60.8 °F - 60.8 °F 100% 29.74 in 10.0 mi West 5.8 mph - N/A   Partly Cloudy
4:55 PM 60.8 °F - 60.8 °F 100% 29.75 in 10.0 mi West 4.6 mph - N/A   Clear
5:15 PM 60.8 °F - 59.0 °F 94% 29.76 in 10.0 mi West 6.9 mph - N/A   Partly Cloudy
5:35 PM 60.8 °F - 59.0 °F 94% 29.77 in 10.0 mi West 5.8 mph - N/A   Scattered Clouds
5:55 PM 60.8 °F - 59.0 °F 94% 29.77 in 10.0 mi WNW 8.1 mph - N/A   Mostly Cloudy
6:15 PM 60.8 °F - 57.2 °F 88% 29.78 in 10.0 mi Variable 6.9 mph - N/A   Overcast
6:35 PM 57.2 °F - 55.4 °F 94% 29.79 in 10.0 mi WNW 9.2 mph - N/A   Mostly Cloudy
6:55 PM 57.2 °F - 55.4 °F 94% 29.80 in 10.0 mi NNW 10.4 mph - N/A   Overcast
7:15 PM 55.4 °F - 55.4 °F 100% 29.82 in 10.0 mi WNW 8.1 mph - N/A   Mostly Cloudy
7:35 PM 55.4 °F - 53.6 °F 94% 29.83 in 10.0 mi WNW 9.2 mph - N/A   Mostly Cloudy
7:55 PM 53.6 °F - 53.6 °F 100% 29.84 in 10.0 mi NW 8.1 mph - N/A   Overcast
8:15 PM 53.6 °F - 53.6 °F 100% 29.87 in 10.0 mi NW 12.7 mph - N/A   Overcast
8:35 PM 51.8 °F - 51.8 °F 100% 29.88 in 10.0 mi NW 9.2 mph - N/A   Overcast
8:55 PM 51.8 °F - 50.0 °F 94% 29.89 in 10.0 mi NW 6.9 mph - N/A   Mostly Cloudy
9:15 PM 50.0 °F - 50.0 °F 100% 29.90 in 10.0 mi NW 8.1 mph - N/A   Scattered Clouds
9:35 PM 48.2 °F - 48.2 °F 100% 29.90 in 10.0 mi NW 5.8 mph - N/A   Scattered Clouds
9:55 PM 48.2 °F - 48.2 °F 100% 29.91 in 10.0 mi NNW 5.8 mph - N/A   Mostly Cloudy
10:15 PM 48.2 °F - 48.2 °F 100% 29.92 in 10.0 mi NW 5.8 mph - N/A   Mostly Cloudy
10:55 PM 46.4 °F 43.5 °F 46.4 °F 100% 29.96 in 10.0 mi NNW 5.8 mph - N/A   Clear
11:15 PM 46.4 °F 42.9 °F 46.4 °F 100% 29.97 in 10.0 mi NW 6.9 mph - N/A   Partly Cloudy
11:35 PM 46.4 °F 45.2 °F 46.4 °F 100% 29.98 in 10.0 mi Variable 3.5 mph - N/A   Partly Cloudy
11:55 PM 46.4 °F 45.2 °F 46.4 °F 100% 29.99 in 10.0 mi North 3.5 mph - N/A   Clear